Back to catalog

SATELIOT_4

AliveCommunicationsSSO
NORAD 60537·PAYLOAD·🇪🇸 Spain

Launched Aug 16, 2024 from Vandenberg Space Force Base

Loading…

Next Passes (next 24 hours)

TLE

FreshSource: Space-Track

Epoch: Sep 13, 2026, 05:07 UTC

1 60537U 24149BX  26256.21327843  .00001640  00000-0  14784-3 0  9990
2 60537  97.6667 329.0127 0003588  99.6918 260.4709 14.96918596113140

Track SATELIOT_4 in real time with AllMySat

Download on the App Store